导读

CHINASAT 4A是由中国于2024年8月22日成功发射的通信卫星,作为中国中星系列卫星家族新成员,该卫星定点地球同步轨道,主要为覆盖区域提供广播电视传输、宽带通信等服务,进一步完善中国通信卫星网络布局,增强空间通信基础设施服务能力,满足公众多样化通信、广播信息服务需求,助力数字中国建设与区域通信保障能力提升。

基本信息
目录编号:
60606
目录名称:
CHINASAT 4A
国际标识:
2024-151A
轨道中心:
EARTH
卫星名称:
中星 4A 通信卫星
卫星全名:
卫星状态:
在轨 (已飞行668 天)
发射日期:
2024-08-22 UTC
国别 :
中国 (CN)
星等 :
--
轨道信息
数据来源 国际轨道数据 AOE轨道数据
星历时间 2026-06-20T17:58:05+0800
1天前
查看轨道信息
2026-06-21T03:00:00+0800
20小时前
查看轨道信息
半长轴 42164.616km 42164.672km
偏心率 0.0000152 0.0000299
轨道倾角 1.305° 1.304°
近地点辐角 182.654° 165.890°
升交点赤经 270.793° 270.791°
平近点角 82.930° 235.547°
近地点 35785.838km 35785.274km
远地点 35787.12km 35787.796km
周期 1436.091分钟 1436.094分钟
每日圈数 1.002722 1.00272
详细信息
使用方式:
暂无
2D轨道图
3D轨道图
轨道高度分析图
轨道倾角分析图
轨道综合分析图
查看轨道综合分析图